Flag for Canada Weather past 2 weeks in Oshawa, Ontario, Canada

Now
32 °F

Low clouds.


Feels Like: 26 °F
Forecast: 35 / 42 °F
Wind: 7 mph from East

Location: Toronto Buttonville

Current Time: Dec 23, 2014 at 12:08:33 AM

Latest Report: Dec 22, 2014 at 11:00 PM


Visibility: 7 mi

Pressure: 30.08 "Hg

Humidity: 87%

Dew point: 28 °F

Location of OshawaLocation

Historic Weather in Oshawa — Graph

°F

Oshawa temperature yesterday

Maximum temperature yesterday: 32 °F (at 10:00 AM)
Minimum temperature yesterday: 30 °F (at 12:00 AM)
Average temperature yesterday: 31 °F

Past Weeks' High & Low Weather Summary

 TemperatureHumidityPressure
High39 °F (Dec 15, 2:00 PM)100% (Dec 9, 8:00 AM)30.67 "Hg (Dec 9, 8:00 AM)
Low16 °F (Dec 20, 8:00 AM)45% (Dec 8, 8:00 PM)29.74 "Hg (Dec 16, 2:00 PM)
Average31 °F84%30.09 "Hg
* Reported Dec 7 10:00 PM — Dec 22 10:00 PM, Oshawa, Weather by CustomWeather, © 2014

Note: Actual official high and low records may vary slightly from our data, if they occured in-between our weather recording intervals... More about our weather records

Advertising

Oshawa weather history for previous 24 hours

 ConditionsComfort  
Time TempWeatherWind HumidityBarometerVisibility
10:00 PM
Dec 22
32 °FOvercast.8 mph87%30.07 "Hg8 mi
9:00 PM30 °FOvercast.9 mph93%30.07 "Hg8 mi
8:00 PM30 °FOvercast.7 mph86%30.09 "Hg8 mi
7:00 PM30 °FPassing clouds.6 mph93%30.11 "Hg12 mi
6:00 PM32 °FPassing clouds.7 mph80%30.12 "Hg12 mi
5:00 PM32 °FOvercast.8 mph80%30.11 "Hg15 mi
4:00 PM32 °FOvercast.10 mph80%30.12 "Hg15 mi
3:00 PM32 °FPartly sunny.8 mph75%30.12 "Hg15 mi
2:00 PM32 °FPartly sunny.13 mph75%30.14 "Hg15 mi
1:00 PM32 °FOvercast.12 mph75%30.15 "Hg15 mi
12:00 PM32 °FOvercast.12 mph75%30.18 "Hg15 mi
11:00 AM32 °FOvercast.12 mph75%30.21 "Hg15 mi
10:00 AM32 °FOvercast.10 mph75%30.22 "Hg15 mi
9:00 AM30 °FOvercast.9 mph80%30.23 "Hg15 mi
8:00 AM30 °FOvercast.9 mph75%30.24 "Hg15 mi
3:00 AM30 °FOvercast.5 mph69%30.27 "Hg12 mi
2:00 AM30 °FOvercast.8 mph69%30.27 "Hg12 mi
1:00 AM30 °FOvercast.7 mph75%30.28 "Hg12 mi
12:00 AM30 °FOvercast.3 mph80%30.30 "Hg12 mi
Weather by CustomWeather, © 2014

See weather overviewHow to use our weather pages